Regional Weather Roundup
Issued by NWS

Home | Current Version | Previous Version | Graphics & Text | Print | Product List | Glossary On
Versions: 1 2 3 4 5 6 7 8 9 10 11 12 13 14 15 16 17 18 19 20 21 22 23 24 25 26 27 28 29 30 31 32 33 34 35 36 37 38 39 40 41 42 43 44 45 46 47 48 49 50
000
ASUS45 KTFX 022010
RWRMT
MONTANA REGIONAL WEATHER ROUNDUP
NATIONAL WEATHER SERVICE GREAT FALLS MT
200 PM MDT TUE JUN 02 2015

NOTE: "FAIR" INDICATES FEW OR NO CLOUDS BELOW 12000 FEET WITH NO
SIGNIFICANT WEATHER AND/OR OBSTRUCTIONS TO VISIBILITY.

MTZ001>007-043-022100-
WEST OF THE DIVIDE

CITY           SKY/WX    TMP DP  RH WIND       PRES   REMARKS
KALISPELL      LGT RAIN  56  54  93 SE12      29.94R
MISSOULA       CLOUDY    58  52  80 NE5       29.96F
BUTTE          PTSUNNY   61  39  44 S18       29.96R
MULLAN PASS    LGT RAIN  41  41 100 VRB6      30.03R VSB 1/2
DEER LODGE       N/A     54  43  66 SW3G20    30.00R
HAMILTON         N/A     61  46  59 SW3       29.97S
LIBBY            N/A     61  46  59 NE3       29.94S
PLAINS           N/A     61  49  64 NW7       29.97R
RONAN            N/A     56  50  80 E3        30.02S
THOMPSON FALLS   N/A     58  50  75 W7        30.02R
$$

MTZ008-052>055-022100-
SOUTHWEST MONTANA

CITY           SKY/WX    TMP DP  RH WIND       PRES   REMARKS
BOZEMAN        MOSUNNY   70  38  31 SW12      29.92F
DILLON         MOSUNNY   67  41  38 SW13G24   29.93F
W YELLOWSTONE  PTSUNNY   52  39  62 CALM      30.09F
THREE FORKS      N/A     69  69 100 SW7       29.91F
$$

MTZ009-010-012-014-046-048-049-054-022100-
EAST SLOPES AND CENTRAL MONTANA

CITY           SKY/WX    TMP DP  RH WIND       PRES   REMARKS
CUT BANK       CLOUDY    51  47  86 E13       29.93R
GREAT FALLS    CLOUDY    66  46  48 SW14      29.86F
MALMSTROM AFB  PTSUNNY   65  47  51 SW13      29.86F
HELENA         MOSUNNY   68  47  46 NE7       29.87F
CONRAD           N/A     55  55 100 NE9       29.94S
$$

MTZ011-013-016-021-045-047-050-051-022100-
NORTH CENTRAL MONTANA

CITY           SKY/WX    TMP DP  RH WIND       PRES   REMARKS
HAVRE          LGT RAIN  56  51  84 E12       29.92F
LEWISTOWN      PTSUNNY   56  50  80 SE14      29.92R
N BAR RANCH    DRIZZLE   54  52  94 NE8       29.94F
CHINOOK          N/A     59  50  72 E9        29.94F
FORT BENTON      N/A     63  52  67 E10       29.87F
$$

MTZ017>020-022>027-061-062-022100-
NORTHEAST MONTANA

CITY           SKY/WX    TMP DP  RH WIND       PRES   REMARKS
GLASGOW        LGT RAIN  57  51  80 N8        29.89S
JORDAN           N/A     58  51  78 N13       29.90R
SIDNEY         PTSUNNY   63  55  77 S21       29.75F
WOLF POINT     LGT RAIN  59  53  80 N16G25    29.86R
MALTA            N/A     58  49  72 N5        29.90S
PLENTYWOOD       N/A     55  54  94 NE18      29.85R
POPLAR           N/A     55  55 100 N20G25    29.85R
SCOBEY           N/A     62  45  53 N17       29.88R
$$

MTZ028>42-056>058-022100-
SOUTHCENTRAL AND SOUTHEAST MONTANA

CITY           SKY/WX    TMP DP  RH WIND       PRES   REMARKS
BAKER          PTSUNNY   68  57  68 NW16G29   29.84S
BILLINGS       TSTM      65  57  75 W18G24    29.91R
LIVINGSTON     MOSUNNY   69  41  36 SW29G40   29.91F
MILES CITY     PTSUNNY   66  55  67 NW14      29.86S
BIG TIMBER       N/A     68  43  40 W20G28    29.91F
EKALAKA          N/A     72  52  49 W18       29.85F
FORSYTH          N/A     64  55  72 NW10G17   29.87S
LAUREL           N/A     59  49  69 CALM      29.90S
ROUNDUP          N/A     59  51  74 N7        29.84S
$$

REGIONAL REPORTS...DAKOTAS

CITY           SKY/WX    TMP DP  RH WIND       PRES   REMARKS
WILLISTON      LGT RAIN  58  55  90 NE7G20    29.77S
MINOT          CLOUDY    62  58  86 NE15      29.79S
DICKINSON      PTSUNNY   77  61  57 W18       29.75S
BEACH          CLOUDY    64  61  88 W21G26    29.83R
CROSBY         RAIN      55  55 100 NE12      29.86S
WATFORD CITY   MOCLDY    64  63  94 W5        29.75R
BISMARCK       CLOUDY    74  65  73 E3        29.74S
GRAND FORKS    CLOUDY    66  59  78 S5        29.80F
FARGO          CLOUDY    74  61  63 S18       29.79F
BUFFALO SD       N/A     76  56  49 W21G26    29.77S
RAPID CITY     SUNNY     80  61  52 NE15      29.82F
$$

REGIONAL REPORTS...WYOMING/IDAHO/WASHINGTON

CITY           SKY/WX    TMP DP  RH WIND       PRES   REMARKS
GILLETTE       SUNNY     76  50  40 N9        29.89S
SHERIDAN       SUNNY     72  54  53 NW3       29.88F
BUFFALO WY     SUNNY     72  50  45 N8        29.92F
CODY           MOSUNNY   73  43  33 S10G16    29.89S
YELLOWSTONE LA   N/A     51  37  58 CALM      30.15F
IDAHO FALLS    PTSUNNY   64  50  60 SW9       30.02F
SALMON           N/A     70  43  37 S15G24    29.88F
BOISE          MOSUNNY   72  41  32 W8        29.98F
SPOKANE        CLOUDY    62  45  53 S16G24    29.93S
$$

REGIONAL REPORTS...ALBERTA

CITY           SKY/WX    TMP DP  RH WIND       PRES   REMARKS
EDMONTON       CLOUDY    54  45  71 NE12      29.96F
CALGARY        LGT RAIN  55  46  71 S14       29.96S
LETHBRIDGE     CLOUDY    57  46  67 SE13G18   29.95S
MEDICINE HAT   CLOUDY    64  46  52 N10       29.92F
$$

REGIONAL REPORTS...SASKATCHEWAN

CITY           SKY/WX    TMP DP  RH WIND       PRES   REMARKS
SWIFT CURRENT  SUNNY     59  45  58 E9G17     29.97S
REGINA         CLOUDY    63  39  42 NE13      29.94S
SASKATOON      CLOUDY    63  34  34 N13       30.01F
$$


USA.gov is the U.S. government's official web portal to all federal, state and local government web resources and services.